Location: Bletchingley
(51.2333°N, 0.1000°W)
Time: 14:56:13
(UTC+00:00)

Exosat Rocket - Pass Details

Date: 18 September 2020
Orbit: 760 x 2514 km, 72.3° (Epoch: 27 October)

Event Time Altitude Azimuth Distance (km) Brightness Sun altitude
Rises 20:59:51 0° 213° (SSW) 3,584 6.9 -25.7°
Reaches altitude 10° 21:02:31 10° 216° (SW) 2,500 6.1 -26.0°
Maximum altitude 21:07:54 68° 300° (WNW) 834 3.7 -26.7°
Drops below altitude 10° 21:12:54 10° 24° (NNE) 2,320 6.2 -27.2°
Sets 21:15:18 0° 27° (NNE) 3,303 7.0 -27.5°
